Location: Plainartige
(45.6866°N, 1.7993°E)
Time: 11:45:02
(UTC+00:00)

YUBILEINY - Visible Passes

Search period start: 28 June 2022 00:00
Search period end: 08 July 2022 00:00
Orbit: 1479 x 1507 km, 82.5° (Epoch: 28 June)

Date Brightness Start Highest point End Pass type
(mag) Time Alt. Az. Time Alt. Az. Time Alt. Az.
28 Jun ? 02:33:48 10° NNE 02:40:01 20° ENE 02:46:09 10° ESE visible
29 Jun ? 01:46:31 10° NNE 01:49:02 11° NE 01:51:31 10° ENE visible
30 Jun ? 02:50:49 10° N 02:58:19 30° ENE 03:05:42 10° ESE visible
01 Jul ? 02:02:13 10° NNE 02:07:40 17° NE 02:13:03 10° E visible
02 Jul ? 03:08:05 10° N 03:16:23 43° ENE 03:24:35 10° SE visible
03 Jul ? 02:19:03 10° N 02:26:04 25° ENE 02:32:59 10° ESE visible
04 Jul ? 01:30:48 10° NNE 01:35:17 15° NE 01:39:43 10° E visible
04 Jul ? 03:25:32 10° N 03:34:16 62° ENE 03:42:54 10° SSE visible
05 Jul ? 02:36:14 10° N 02:44:13 37° ENE 02:52:08 10° SE visible
06 Jul ? 01:47:21 10° N 01:53:47 22° ENE 02:00:08 10° ESE visible
07 Jul ? 00:59:41 10° NNE 01:02:50 12° NE 01:05:58 10° ENE visible
07 Jul ? 02:53:36 10° N 03:02:12 53° ENE 03:10:39 10° SSE visible
